TimeMDT,TemperatureF,Dew PointF,Humidity,Sea Level PressureIn,VisibilityMPH,Wind Direction,Wind SpeedMPH,Gust SpeedMPH,PrecipitationIn,Events,Conditions,WindDirDegrees,DateUTC
12:53 AM,46.9,45.0,93,30.02,10.0,West,4.6,-,N/A,,Clear,260,2013-09-16 06:53:00
1:53 AM,46.9,45.0,93,30.01,10.0,West,3.5,-,N/A,,Clear,270,2013-09-16 07:53:00
2:53 AM,46.0,44.1,93,30.01,10.0,West,4.6,-,N/A,,Clear,280,2013-09-16 08:53:00
3:53 AM,45.0,43.0,93,30.01,10.0,West,4.6,-,N/A,,Clear,280,2013-09-16 09:53:00
4:53 AM,44.1,43.0,96,30.01,10.0,West,3.5,-,N/A,,Clear,270,2013-09-16 10:53:00
5:53 AM,44.1,43.0,96,30.02,10.0,West,4.6,-,N/A,,Clear,280,2013-09-16 11:53:00
6:53 AM,44.1,42.1,93,30.06,10.0,West,4.6,-,0.01,,Clear,280,2013-09-16 12:53:00
7:53 AM,45.0,44.1,97,30.08,10.0,West,4.6,-,N/A,,Clear,270,2013-09-16 13:53:00
8:53 AM,52.0,48.0,86,30.05,10.0,WNW,3.5,-,N/A,,Clear,290,2013-09-16 14:53:00
9:53 AM,60.1,51.1,72,30.05,10.0,Calm,Calm,-,N/A,,Clear,0,2013-09-16 15:53:00
10:53 AM,64.0,51.1,63,30.04,10.0,Variable,5.8,-,N/A,,Clear,0,2013-09-16 16:53:00
11:53 AM,66.0,52.0,60,30.03,10.0,SE,6.9,-,N/A,,Clear,140,2013-09-16 17:53:00
12:53 PM,68.0,51.1,55,30.01,10.0,SSE,10.4,-,N/A,,Clear,160,2013-09-16 18:53:00
1:53 PM,69.1,48.9,49,30.00,10.0,SSE,12.7,18.4,N/A,,Clear,160,2013-09-16 19:53:00
2:53 PM,70.0,48.0,46,29.97,10.0,SSE,13.8,19.6,N/A,,Scattered Clouds,160,2013-09-16 20:53:00
3:53 PM,71.1,45.0,39,29.96,10.0,SSE,13.8,19.6,N/A,,Mostly Cloudy,150,2013-09-16 21:53:00
4:53 PM,70.0,44.1,39,29.94,10.0,SE,13.8,-,N/A,,Scattered Clouds,130,2013-09-16 22:53:00
5:53 PM,70.0,44.1,39,29.94,10.0,SSE,11.5,-,N/A,,Clear,160,2013-09-16 23:53:00
6:53 PM,66.9,43.0,42,29.94,10.0,SSE,6.9,-,N/A,,Clear,160,2013-09-17 00:53:00
7:53 PM,61.0,46.0,58,29.96,10.0,SSE,8.1,-,N/A,,Clear,160,2013-09-17 01:53:00
8:53 PM,57.9,46.0,65,29.96,10.0,SE,9.2,-,N/A,,Clear,130,2013-09-17 02:53:00
9:53 PM,52.0,46.9,83,29.96,10.0,Calm,Calm,-,N/A,,Clear,0,2013-09-17 03:53:00
10:53 PM,50.0,46.9,89,29.96,10.0,Calm,Calm,-,N/A,,Clear,0,2013-09-17 04:53:00
11:53 PM,50.0,48.0,93,29.95,10.0,Calm,Calm,-,N/A,,Mostly Cloudy,0,2013-09-17 05:53:00